Weather in Varavay

Russia / Udmurt Republic     57°16′48″N   52°33′59″E
temp.,
°C
wind,
m/s
gust,
m/s
humid.,
%
clouds,
%
prec.,
mm/h
press.,
hPa
HPBL,
m
25 january, mon
mon2501:000ssw3798100 0.1 1023284
04:00+1ssw4999100 0.4 1024338
07:00+1sw41098100 0.1 1023411
10:00+1ssw41098100 0.2 1025359
13:00+1ssw61298100 0.4 1025508
16:000sw51194100 0.7 1026531
19:00−2sw3996100 0.2 1027473
22:00−2ssw4994100 0.3 1027494
26 january, tue
tue2601:00−3ssw3993100 0.0 1027597
04:00−3s4894100 0.1 1027473
07:00−7s3797100 0.1 1027246
10:00−5s3995100 0.1 1026397
13:00−2ssw4893100 0.1 1026546
16:00−2ssw4994100 0.3 1025579
19:00−3ssw3996100 0.2 1025507
22:00−3ssw3895100 0.3 1025433
27 january, wed
wed2701:00−3ssw3895100 0.1 1025458
04:00−4s3895100 0.1 1025447
07:00−4s3994100 0.1 1024561
10:00−5s51092100 0.2 1023612
13:00−4s51092100 0.1 1023732
16:00−3ssw51192100 0.3 1022697
19:00−4s51293100 0.1 1021578
22:00−3ssw61295100 1.6 1019549
28 january, thu
thu2801:00−4ssw51295100 1.8 1019491
04:00−4ssw51295100 3.2 1018526
07:00−4ssw51296100 1.4 1018453
10:00−4ssw4996100 3.0 1019429
13:00−4sw4896100 1.4 1019437
16:00−3ssw3796100 2.4 1020389
19:00−5s2596100 0.1 1020218
22:00−8sse2595100 0.1 1020101
29 january, fri
fri2901:00−8sse3695100 0.0 1021167
04:00−8sse3794100 0.0 1020207
07:00−9se3793100 0.0 1019184
10:00−8se4990100 0.0 1018259
13:00−7se41090100 0.0 1017283
16:00−6ese51089100 0.0 1014353
19:00−6se51288100 0.0 1013365
22:00−6se41187100 0.0 1011360